ES'HAIL 2 (43700 NORAD) Tracking and Keplerian Element Data

This shows tracking and keplerian element data for the satellite.

Feedback or suggestion? Click here.




ElementValue
Catalog43700
NameES'HAIL 2
Epoch Orbit253
Epoch Day193.88057545
Epoch Year2019
RAAN95.2362
Inclination0.0452
Eccentricity0.0001362
Argument of Perigee21.2664
Mean Anonmoly156.7595
Mean Motion1.00274837
Decay Rate1.33E-06
L11 43700U 18090A 19193.88057545 .00000133 00000-0 00000+0 0 9993
L22 43700 0.0452 95.2362 0001362 21.2664 156.7595 1.00274837 2537

Live tracking and technical data element details for ES'HAIL 2 (NORAD 43700). ES'HAIL 2 can be tracked NOW for your location showing map with azimuth and elevation plus other details from your city location.

Track the satellite on the map from your city or location and see movement details for azimuth, elevation, latitude, longitude, range, height, and movement on the map or in text.







IsCatalogInMostPopularTable: catalog: 43700, numindb: 4168
Update: records affected: 1



GetName: 43700 ES'HAIL 2

Hit Count: updated at: Mon, 15 Jul 2019 22:36:31 GMT